Wind_Speed
28 26 24 22 20 18 18 17 17 18 18 14 19 25 22 16 14 8 6 8 13 4 8 9 3 0 1 1 2 4 3 3 5 1 3 3 3 3 2 6 4 4 3 7 28
29 28 26 24 21 20 18 17 18 18 17 20 11 20 17 16 8 7 10 9 7 11 11 10 4 3 1 1 1 3 3 5 1 3 4 4 4 5 4 4 3 5 8 24 25
30 29 27 24 25 21 20 19 17 18 18 17 19 14 15 13 3 6 16 13 11 9 12 10 10 2 2 2 2 4 5 2 4 5 6 2 3 6 6 4 7 8 11 17 20
32 30 28 26 24 24 21 20 19 18 19 18 20 22 16 17 6 4 11 20 15 11 13 10 4 4 3 4 3 3 6 3 3 2 4 5 4 3 4 4 5 16 22 21 18
34 32 31 28 26 25 24 22 19 19 19 22 24 24 14 5 6 3 5 15 18 10 16 5 6 5 5 4 1 4 4 3 4 5 5 5 2 3 4 5 6 22 19 15 16
33 33 32 30 28 27 26 25 23 18 18 21 26 26 7 18 19 6 4 10 16 17 17 14 8 9 6 5 7 3 6 2 4 5 2 3 2 4 3 7 11 17 12 12 18
34 33 32 31 29 28 26 24 25 21 16 17 25 26 8 16 13 22 8 11 15 19 11 20 5 7 3 2 1 3 2 4 4 3 1 3 6 6 7 7 12 12 12 10 15
35 33 33 30 30 29 27 26 24 23 18 17 15 18 6 21 2 22 20 9 3 13 22 20 7 5 4 1 4 3 0 4 4 5 4 7 6 5 9 9 11 11 11 13 15
36 35 34 31 28 28 27 27 25 23 17 12 7 4 4 11 19 24 25 17 9 14 21 23 7 4 4 6 2 2 3 4 3 10 5 6 4 7 6 9 9 9 10 12 12
38 37 34 30 29 27 26 27 24 20 17 11 5 2 6 7 20 26 26 21 8 10 8 6 3 4 4 5 10 3 3 3 7 6 6 5 7 7 2 7 10 9 9 13 14
39 37 35 32 29 30 25 15 9 5 18 7 9 1 7 5 19 19 26 27 15 6 10 4 7 14 11 11 5 8 6 10 6 7 6 16 6 11 10 6 7 8 8 12 15
38 36 32 32 29 30 30 8 25 6 9 14 3 14 3 11 9 16 28 13 13 16 15 4 17 12 8 6 7 6 8 9 3 3 6 5 10 9 9 9 9 12 11 10 10
37 34 33 34 29 28 28 30 30 20 5 10 12 5 7 4 5 18 22 6 24 23 24 20 15 11 12 9 14 10 7 8 5 2 3 2 6 7 9 8 9 13 9 9 12
35 33 31 32 23 25 15 23 32 19 2 5 15 8 8 6 7 14 29 13 8 25 27 17 6 22 16 18 13 15 6 4 7 7 5 5 5 5 6 10 11 10 9 10 10
34 31 33 37 18 16 14 23 21 8 6 10 14 13 12 11 11 15 31 16 20 15 12 18 24 22 21 23 17 6 8 5 3 3 1 3 1 6 7 5 10 15 12 13 13
33 34 36 30 23 26 19 23 13 6 8 6 11 17 19 16 7 7 18 16 8 13 21 2 10 12 18 11 12 8 7 6 3 2 6 8 6 5 6 9 7 7 14 15 12
34 35 39 29 12 26 28 14 5 6 5 5 12 20 29 17 20 13 22 29 10 11 16 5 7 10 18 9 8 9 13 2 4 4 9 6 8 13 7 9 7 6 7 10 9
37 36 26 19 24 28 23 10 9 5 7 1 9 22 24 20 24 18 19 27 18 10 15 13 8 15 10 21 12 22 15 5 7 5 5 1 8 6 17 18 8 9 8 4 8
34 23 21 19 21 19 10 11 5 5 7 10 1 18 20 18 11 19 14 33 19 20 14 13 6 4 4 7 14 8 14 6 5 2 2 5 6 9 7 9 6 8 5 7 6
19 12 8 19 18 13 3 9 4 3 3 5 8 10 19 23 17 27 18 17 18 24 6 7 6 2 2 6 1 12 12 7 1 5 5 5 4 5 7 11 8 7 8 2 2
19 4 14 24 17 3 4 5 4 2 6 5 2 6 11 17 29 24 27 6 22 22 8 13 6 3 6 10 19 7 12 4 5 5 5 3 6 7 11 15 9 5 7 8 7
4 3 22 30 4 3 4 7 5 6 6 4 3 2 3 17 27 25 30 18 23 23 17 5 6 10 13 4 4 7 11 11 8 8 3 2 5 3 7 8 10 8 7 7 8
4 3 16 8 7 5 2 5 3 5 7 8 9 12 6 7 13 17 26 28 35 30 21 9 5 9 3 5 4 18 12 19 3 3 10 5 5 0 3 9 7 11 9 8 7
4 5 1 2 1 5 4 4 6 7 5 12 4 7 6 14 19 17 12 15 34 34 17 9 7 16 20 33 10 19 23 20 4 5 4 15 4 4 7 11 9 8 8 8 7
3 4 4 9 12 9 10 8 11 7 11 8 10 17 11 9 19 13 14 12 24 24 7 7 7 8 4 7 16 22 19 21 19 14 11 16 13 15 13 11 10 10 8 7 7
5 4 1 2 9 16 9 10 10 11 9 11 17 17 17 15 21 9 18 17 17 17 21 4 8 5 2 12 18 24 26 26 29 27 23 4 13 7 8 7 8 9 9 7 7
4 3 4 7 10 9 16 18 17 11 8 21 15 15 17 28 20 25 23 17 24 24 25 15 7 5 2 7 10 5 31 32 30 24 30 19 17 9 8 8 10 11 9 8 7
Wind_Direction
220 221 221 224 224 223 216 213 212 209 202 192 200 193 192 191 192 200 187 190 229 221 205 189 206 221 155 360 300 27 65 228 242 297 162 166 94 35 148 106 60 39 103 175 160
216 218 222 220 225 221 217 212 211 208 203 203 166 183 170 177 178 202 200 207 215 207 182 174 167 168 117 197 289 116 152 220 115 104 146 121 107 139 106 110 68 64 65 139 156
216 219 220 222 221 223 217 211 210 207 203 198 202 189 169 156 69 243 216 214 215 214 196 182 135 94 135 131 220 194 213 278 3 124 109 114 111 153 132 207 187 173 154 154 158
214 212 220 221 222 219 220 211 209 208 199 188 180 178 162 146 201 166 231 207 222 219 230 196 114 104 132 184 250 245 234 231 218 192 102 142 135 104 180 224 175 160 158 159 173
215 209 213 215 221 218 217 215 203 206 202 191 181 162 154 91 242 68 137 196 207 230 235 203 147 126 179 193 332 243 281 342 169 140 112 116 148 186 235 233 123 139 155 166 174
213 211 211 213 217 218 214 215 211 204 199 199 194 194 157 214 217 205 106 174 202 215 245 226 183 177 180 189 168 262 214 138 200 165 89 120 223 155 270 155 131 144 158 170 177
209 209 211 213 212 211 212 209 208 208 200 199 195 194 194 217 200 206 173 187 196 217 253 243 225 156 160 186 252 212 220 184 209 183 203 155 287 217 232 138 155 154 160 172 188
205 204 208 209 210 209 209 208 204 205 205 198 189 182 237 218 137 176 181 186 175 229 229 261 243 103 86 286 18 132 40 149 220 161 246 152 246 261 236 172 178 176 168 178 187
203 204 208 207 206 207 203 203 199 198 192 183 159 192 227 195 182 183 185 177 176 232 246 258 157 118 69 114 52 293 169 184 211 194 164 184 237 255 254 183 194 191 181 185 189
200 203 206 203 203 200 197 195 189 181 172 148 131 106 208 199 182 186 192 180 148 205 257 213 133 127 168 165 210 176 174 232 208 219 190 200 242 274 292 180 199 207 194 191 188
195 197 201 199 199 195 184 161 169 206 185 168 186 283 98 95 181 185 176 162 157 177 191 221 181 203 206 203 190 162 196 204 232 231 162 223 217 237 262 215 233 232 215 195 200
188 195 198 198 198 190 182 190 190 146 186 224 269 209 114 160 157 186 181 165 166 182 175 150 216 194 152 211 233 219 199 221 269 153 173 237 245 234 239 234 209 217 227 198 204
189 194 195 193 190 181 185 200 185 156 149 200 212 165 195 167 199 183 172 203 177 188 188 196 205 156 189 191 211 231 236 204 206 203 315 357 277 232 240 222 221 221 217 214 189
185 187 187 183 170 176 183 196 183 188 119 200 189 217 171 137 229 204 193 159 187 195 190 216 183 179 193 205 191 206 194 191 148 148 223 185 277 287 236 242 233 229 213 216 212
181 182 181 177 151 172 170 186 181 149 208 195 173 176 147 179 133 201 198 204 182 174 170 199 180 184 197 201 189 208 145 124 107 111 17 243 249 264 244 250 240 231 224 217 212
180 181 176 173 176 185 165 157 134 203 210 142 144 168 162 185 213 131 183 232 199 178 201 130 183 177 197 187 177 151 95 60 56 88 243 207 199 240 219 239 240 222 229 220 212
172 174 171 171 165 176 166 137 199 221 160 190 173 169 177 180 189 189 192 206 177 176 177 148 193 175 175 142 151 145 158 146 209 216 239 220 201 245 234 231 209 218 231 220 216
158 158 162 160 156 166 157 192 216 136 179 222 171 183 186 173 198 188 208 202 198 197 157 155 187 178 174 190 174 180 173 152 179 205 222 304 229 251 225 239 225 228 239 197 195
148 146 143 147 169 156 162 210 197 173 162 140 117 176 196 195 167 195 228 197 190 186 160 170 201 151 187 134 159 178 197 144 105 40 98 210 276 307 261 231 215 216 202 224 237
130 118 156 160 157 139 171 196 187 194 106 64 198 204 190 195 201 189 189 213 188 191 190 162 112 184 139 109 58 183 161 167 117 154 237 253 248 227 219 238 224 223 215 266 191
116 97 167 171 136 99 197 222 184 197 115 153 167 237 206 195 197 191 203 213 198 192 193 150 118 191 165 202 186 164 192 188 130 162 177 178 253 218 204 211 200 158 139 133 113
105 102 162 155 155 170 167 182 171 165 176 157 169 260 268 216 195 197 199 188 207 193 179 182 124 161 189 6 267 194 190 189 188 210 214 179 271 291 210 156 136 144 138 141 140
92 97 158 166 188 183 221 199 192 169 186 186 211 195 202 281 185 191 206 206 183 201 174 171 144 136 125 3 335 203 189 199 95 85 209 144 244 306 127 117 156 145 154 151 156
111 131 112 206 129 166 140 223 201 204 230 214 261 173 220 253 285 199 201 190 182 195 169 120 168 180 190 203 136 190 199 199 153 189 170 223 170 218 180 150 166 161 168 179 186
99 203 176 179 208 205 182 195 204 215 208 210 246 226 201 234 269 195 184 193 184 188 158 135 163 175 114 152 173 181 180 189 210 203 201 223 204 200 191 172 179 181 182 174 191
131 144 75 130 177 198 205 214 204 210 191 224 228 224 205 215 220 277 185 184 181 173 176 219 165 123 85 173 167 183 194 195 211 209 228 121 223 194 190 172 166 180 176 185 198
84 47 113 156 186 188 209 211 220 217 253 231 213 222 217 221 210 235 226 181 161 169 185 182 135 121 194 151 111 185 200 197 211 205 217 215 216 187 201 176 179 192 176 176 185
Height
754 758 763 768 770 774 777 780 784 788 793 796 799 803 807 811 813 817 815 817 819 822 824 823 825 825 825 825 825 825 847 848 837 832 835 823 828 824 826 832 834 838 840 840 846
750 753 758 762 767 771 773 777 782 787 791 795 798 802 805 810 815 814 814 815 818 822 824 823 825 825 828 827 828 833 850 838 822 824 830 824 826 828 832 837 841 844 843 844 848
744 748 753 757 763 767 770 775 780 785 789 793 797 801 805 806 816 808 810 815 817 820 824 824 823 826 829 827 830 832 843 825 826 821 820 824 826 826 834 842 836 842 844 845 848
740 744 749 753 758 764 768 773 779 783 787 791 796 799 805 806 816 804 809 811 816 819 825 823 824 830 833 835 828 837 826 824 825 823 821 827 824 827 828 829 824 830 835 842 847
734 740 746 749 755 760 765 771 776 781 785 789 794 797 804 807 808 804 805 809 815 819 823 821 823 829 834 835 832 834 827 823 824 824 823 822 826 828 827 823 823 829 837 840 845
727 734 740 746 752 757 762 767 773 780 784 788 791 796 801 805 803 801 806 811 815 818 821 820 820 819 827 830 833 826 826 827 828 825 824 828 829 827 823 823 828 830 837 839 841
721 728 735 742 748 753 759 765 771 778 783 788 789 794 797 791 795 797 808 813 814 819 823 821 817 819 821 826 825 826 833 829 831 828 828 828 837 832 821 823 829 831 835 839 840
715 723 731 737 744 749 755 763 769 777 783 786 788 790 788 789 794 798 805 813 812 818 823 821 818 819 823 826 828 833 831 844 832 831 829 831 841 826 820 824 828 829 831 834 835
709 718 725 732 740 745 752 760 769 776 781 785 790 791 788 788 790 795 800 807 811 819 822 821 817 825 827 837 844 839 847 841 834 828 829 835 838 823 819 822 824 825 827 828 832
703 712 720 728 735 742 749 758 768 776 782 787 789 795 787 780 783 789 797 803 812 822 824 821 820 830 832 839 843 851 845 839 837 831 832 837 838 825 818 819 820 819 821 823 825
697 706 716 724 731 739 748 758 771 778 771 766 769 771 768 776 783 787 791 802 811 819 823 820 825 826 831 831 829 837 841 842 834 825 833 832 835 828 819 820 822 818 818 818 817
692 702 711 719 727 735 743 746 749 753 767 768 770 773 772 773 783 787 793 797 806 812 814 823 819 819 828 832 833 832 839 837 826 822 828 831 832 824 818 813 814 813 812 812 813
689 698 707 716 725 733 736 740 750 753 763 764 767 771 774 776 776 779 785 792 791 805 808 808 802 815 823 830 835 834 835 831 829 828 825 832 837 826 812 808 804 803 803 801 805
686 695 704 714 727 728 734 739 746 751 767 760 761 764 770 774 780 775 780 781 792 794 800 805 802 805 818 822 826 835 825 827 831 837 847 834 851 825 809 807 802 799 800 798 798
681 691 701 710 714 723 730 736 742 751 759 740 750 754 761 768 764 769 775 778 781 781 791 789 793 804 812 809 815 827 824 830 834 845 841 838 845 826 811 808 800 792 793 791 790
677 688 698 709 714 719 727 733 741 744 738 735 738 747 757 764 765 764 773 775 769 778 782 787 786 796 797 805 810 823 829 838 842 843 844 836 837 826 810 797 789 785 782 781 784
675 685 697 705 710 716 725 733 738 720 736 736 729 733 738 749 761 762 761 768 759 777 782 795 795 793 792 809 813 816 823 852 854 852 836 828 836 803 796 786 781 778 778 777 778
676 687 696 702 707 712 720 727 721 724 730 732 724 728 734 738 747 754 758 759 759 764 776 786 802 787 783 785 801 802 807 834 849 843 844 836 829 803 777 770 774 773 772 775 775
678 688 695 701 706 711 719 722 710 719 720 725 725 724 731 733 731 748 755 744 750 749 754 773 784 781 779 785 790 806 805 812 835 877 851 829 809 789 775 774 771 772 770 772 771
676 689 697 701 705 711 721 714 722 715 715 720 719 715 717 722 732 737 745 739 740 738 735 746 782 782 785 783 790 791 795 815 829 842 841 821 809 795 781 774 772 770 769 770 771
677 693 697 702 707 716 718 734 724 712 713 726 722 719 710 710 714 724 720 739 732 732 732 734 755 792 786 781 778 792 790 796 799 816 821 825 803 773 766 759 767 768 769 772 775
676 701 696 700 712 714 724 722 706 712 714 720 724 729 729 709 703 708 711 724 725 724 728 732 750 776 774 784 775 776 780 781 793 805 807 808 796 756 758 759 766 772 772 771 771
681 692 698 700 705 710 710 705 706 708 709 711 715 716 723 716 701 700 694 688 715 715 713 729 751 774 789 788 785 776 774 774 785 797 797 809 795 763 764 764 768 769 770 770 770
678 691 700 702 703 703 713 709 707 702 704 703 697 708 718 721 709 697 696 694 701 703 710 716 736 729 733 726 751 767 764 771 781 796 792 772 773 772 768 764 767 766 767 768 769
673 688 686 688 696 695 697 698 700 706 701 701 701 698 715 711 720 683 687 689 691 695 706 709 732 730 726 735 742 755 763 770 773 768 773 751 766 761 759 759 759 759 762 765 765
670 677 685 685 689 697 695 693 693 696 697 696 693 684 698 702 703 693 679 683 688 700 709 712 725 729 752 742 742 750 751 754 749 747 747 757 758 747 753 752 755 756 758 760 762
670 674 678 682 686 693 687 682 682 690 687 679 685 695 686 675 681 695 674 668 667 687 697 701 721 734 765 754 756 774 734 731 729 741 733 752 737 748 749 749 750 751 753 754 756